Regional Weather Roundup
Issued by NWS

Home | Current Version | Previous Version | Text Only | Print | Product List | Glossary Off
Versions: 1 2 3 4 5 6 7 8 9 10 11 12 13 14 15 16 17 18 19 20 21 22 23 24 25 26 27 28 29 30 31 32 33 34 35 36 37 38 39 40 41 42 43 44 45 46 47 48 49 50

000
ASUS44 KMEG 250310
RWRTN
TENNESSEE HOURLY STATE WEATHER ROUNDUP
NATIONAL WEATHER SERVICE MEMPHIS TN
900 PM CST SAT FEB 24 2018

TNZ002-004-019-021-049-052-054-088>092-250400-
WEST TENNESSEE

CITY           SKY/WX    TMP DP  RH WIND       PRES   REMARKS
MEMPHIS INTL   RAIN      56  54  93 SW12G20   29.89R FOG
NWS MEMPHIS      N/A     56 N/A N/A MISG        N/A
JACKSON        RAIN      58  55  90 SW15G22   29.87S
DYERSBURG      LGT RAIN  60  53  77 SW16G24   29.82R
SOMERVILLE     MOCLDY    57  54  88 SW6G13    29.87  FOG
COVINGTON      CLOUDY    59  54  82 W15G21    29.84F HAZE
UNION CITY     MOCLDY    63  57  82 SW14G22   29.78R
BOLIVAR        CLOUDY    57  55  94 SW16G24   29.88R FOG
LEXINGTON      MOCLDY    70  64  83 S14       29.82R
SELMER         CLOUDY    72  64  78 S9G18     29.83R
SAVANNAH       MOCLDY    70  64  83 S14G24    29.85R
$$

TNZ008-025-027-028-033-062-065-066-250400-
NORTH MIDDLE TENNESSEE

CITY           SKY/WX    TMP DP  RH WIND       PRES   REMARKS
NASHVILLE      CLOUDY    71  60  68 S20G28    29.83F
PORTLAND       CLOUDY    68  61  77 S16G25    29.80F
CLARKSVILLE    HVY RAIN  62  59  90 W22G39    29.80R VSB 1/2
SMYRNA         MOCLDY    70  61  73 S12G22    29.85F
COOKEVILLE     MOCLDY    68  59  73 S15G22    29.89F
GALLATIN       MOCLDY    70  61  73 S12G28    29.84F
CROSSVILLE     MOCLDY    62  58  86 S9        29.96F
$$

TNZ061-075-076-078-094-096-097-250400-
SOUTH MIDDLE TENNESSEE

CITY           SKY/WX    TMP DP  RH WIND       PRES   REMARKS
FAYETTEVILLE   PTCLDY    66  63  88 S13       29.93R
TULLAHOMA      MOCLDY    66  61  82 S15       29.91F
WINCHESTER     MOCLDY    66  61  82 S10       29.95R
MCMINNVILLE    MOCLDY    70  59  68 S18G30    29.90F
COLUMBIA       PTCLDY    70  66  88 S16G33    29.83S
SHELBYVILLE    PTCLDY    68  61  77 S15G29    29.89F
$$

TNZ017-018-042-046-047-250400-
NORTHEAST TENNESSEE

CITY           SKY/WX    TMP DP  RH WIND       PRES   REMARKS
TRI CITIES     CLOUDY    61  59  93 CALM      29.99S
ELIZABETHTON   CLOUDY    68  54  60 CALM      30.00S
$$

TNZ012-013-036-069-073-074-250400-
CENTRAL EAST TENNESSEE

CITY           SKY/WX    TMP DP  RH WIND       PRES   REMARKS
KNOXVILLE      MOCLDY    67  57  70 W9        29.95S
OAK RIDGE      LGT RAIN  65  63  93 VRB3      29.97S
DOWNTOWN KNOXV CLOUDY    59  59 100 CALM      29.97R
GATLINBURG     PTCLDY    75  52  43 SW12G26   29.95F
JACKSBORO      CLOUDY    64  61  88 SW17      30.01R
$$

TNZ083-085-099-250400-
SOUTHEAST TENNESSEE

CITY           SKY/WX    TMP DP  RH WIND       PRES   REMARKS
CHATTANOOGA    MOCLDY    69  58  67 SE5       29.96F
$$

SKY/WX REPORTED AS FAIR MEANS FEW OR NO CLOUDS BELOW
12 THOUSAND FEET.





USA.gov is the U.S. government's official web portal to all federal, state and local government web resources and services.